Sergeant Bluff, IA

4:21 PM CDT on August 26, 2016 (GMT -0500)
Sioux Gateway

Weather History for KSUX - March, 2014

Change the Weather History Date:

Saturday, March 1, 2014

  Actual Average Record
Temperature  
Mean Temperature 8 °F 30 °F  
Max Temperature 16 °F 40 °F 77 °F (1992)
Min Temperature -1 °F 20 °F -15 °F (1962)
Degree Days  
Heating Degree Days 57 35  
Month to date heating degree days 57 35  
Since 1 July heating degree days 5661 5329  
Cooling Degree Days 0 0  
Month to date cooling degree days 0 0  
Year to date cooling degree days 0 0  
Moisture  
Dew Point -4 °F    
Average Humidity 76    
Maximum Humidity 87    
Minimum Humidity 65    
Precipitation  
Precipitation 0.17 in 0.04 in 0.57 in (1965)
Month to date precipitation 0.17 0.04  
Year to date precipitation 0.94 1.33  
Snow  
Snow 4.50 in 0.30 in 8.70 in (2007)
Month to date snowfall 4.5 0.3  
Since 1 July snowfall 18.3 26.8  
Snow Depth 1.00 in    
Sea Level Pressure  
Sea Level Pressure 30.48 in    
Wind  
Wind Speed 14 mph (North)    
Max Wind Speed 23 mph    
Max Gust Speed 28 mph    
Visibility 4 miles    
Events Snow    
T = Trace of Precipitation, MM = Missing Value Source: NWS Daily Summary

Daily Weather History Graph

Daily Weather History Graph

Search for Another Location

Airport or City:

Trip Planner

Search our weather history database for the weather conditions in past years. The results will help you decide how hot, cold, wet, or windy it might be!

Date:

Astronomy

Mar. 01, 2014 Rise Set
Actual Time 7:00 AM CST 6:15 PM CST
Civil Twilight 6:32 AM CST 6:43 PM CST
Nautical Twilight 6:00 AM CST 7:16 PM CST
Astronomical Twilight 5:27 AM CST 7:48 PM CST
Moon 6:54 AM CST (3/1) 7:05 PM CST (3/1)
Length of Visible Light 12h 10m
Length of Day
11h 14m
New Moon, 0% of the Moon is Illuminated
Mar 1
New Moon
Mar 8
First Quarter
Mar 16
Full
Mar 23
Last Quarter
Mar 30
New

Hourly Weather History & Observations

Time (CST) Temp. Windchill Dew Point Humidity Pressure Visibility Wind Dir Wind Speed Gust Speed Precip Events Conditions
12:52 AM 14.0 °F -4.3 °F 3.9 °F 64% 30.28 in 10.0 mi North 21.9 mph - 0.00 in   Overcast
1:52 AM 12.9 °F -5.3 °F 3.9 °F 67% 30.32 in 10.0 mi North 20.7 mph - N/A   Overcast
2:52 AM 10.9 °F -6.5 °F 3.0 °F 70% 30.31 in 6.0 mi North 17.3 mph - 0.00 in Snow Light Snow
3:47 AM 10.4 °F -6.0 °F 3.2 °F 73% 30.26 in 2.0 mi North 15.0 mph - 0.00 in Snow Light Snow
3:52 AM 10.0 °F -8.6 °F 3.9 °F 76% 30.32 in 2.0 mi North 19.6 mph 26.5 mph 0.00 in Snow Light Snow
4:09 AM 9.0 °F -9.0 °F 1.9 °F 73% 30.28 in 4.0 mi North 17.3 mph - 0.00 in Snow Light Snow
4:27 AM 9.0 °F -8.5 °F 1.9 °F 73% 30.29 in 5.0 mi North 16.1 mph - 0.00 in Snow Light Snow
4:52 AM 8.1 °F -7.7 °F 1.0 °F 73% 30.36 in 10.0 mi NNE 12.7 mph - 0.00 in   Overcast
5:52 AM 7.0 °F -11.6 °F -0.9 °F 70% 30.40 in 8.0 mi NNE 17.3 mph - 0.00 in Snow Light Snow
6:52 AM 5.0 °F -10.8 °F -2.0 °F 73% 30.42 in 5.0 mi NNE 11.5 mph - 0.00 in Snow Light Snow
7:43 AM 3.9 °F -12.2 °F -2.0 °F 76% 30.38 in 2.0 mi North 11.5 mph - 0.01 in Snow Light Snow
7:52 AM 3.9 °F -12.2 °F -2.0 °F 76% 30.46 in 1.2 mi North 11.5 mph - 0.02 in Snow Light Snow
8:10 AM 3.9 °F -13.7 °F -2.0 °F 76% 30.42 in 0.8 mi North 13.8 mph - 0.00 in Snow Light Snow
8:30 AM 3.9 °F -13.0 °F -2.0 °F 76% 30.44 in 0.8 mi NNE 12.7 mph - 0.01 in Snow Light Snow
8:52 AM 3.0 °F -14.1 °F -2.0 °F 80% 30.54 in 0.5 mi NNE 12.7 mph - 0.03 in Snow Snow
9:49 AM 1.4 °F -14.5 °F -2.2 °F 85% 30.46 in 0.5 mi NNE 10.4 mph - 0.05 in Snow Snow
9:52 AM 1.9 °F -13.8 °F -2.9 °F 80% 30.54 in 0.5 mi NNE 10.4 mph - 0.05 in Snow Snow
10:15 AM 3.0 °F -12.5 °F -2.9 °F 76% 30.46 in 1.0 mi NNE 10.4 mph - 0.02 in Snow Light Snow
10:30 AM 1.9 °F -16.9 °F -5.1 °F 72% 30.47 in 2.0 mi North 15.0 mph - 0.03 in Snow Light Snow
10:45 AM 1.9 °F -16.2 °F -5.1 °F 72% 30.48 in 5.0 mi NNE 13.8 mph - 0.03 in Snow Light Snow
10:52 AM 3.0 °F -13.3 °F -5.1 °F 69% 30.56 in 7.0 mi NNE 11.5 mph - 0.03 in Snow Light Snow
11:52 AM 1.9 °F -17.5 °F -6.0 °F 69% 30.55 in 2.0 mi NE 16.1 mph - 0.00 in Snow Light Snow
12:07 PM 3.0 °F -16.1 °F -6.0 °F 66% 30.47 in 3.0 mi North 16.1 mph - 0.00 in Snow Light Snow
12:36 PM 1.9 °F -14.7 °F -6.0 °F 69% 30.47 in 1.8 mi NNE 11.5 mph - 0.00 in Snow Light Snow
12:47 PM 1.4 °F -16.1 °F -5.8 °F 72% 30.47 in 1.0 mi North 12.7 mph - 0.00 in Snow Light Snow
12:52 PM 1.9 °F -13.8 °F -4.0 °F 76% 30.55 in 1.0 mi North 10.4 mph - 0.00 in Snow Light Snow
1:52 PM 1.0 °F -18.0 °F -5.1 °F 75% 30.55 in 1.0 mi North 15.0 mph - 0.02 in Snow Light Snow
2:28 PM 1.0 °F -18.7 °F -7.1 °F 69% 30.45 in 2.5 mi NNE 16.1 mph - 0.00 in Snow Light Snow
2:38 PM 1.0 °F -18.0 °F -7.1 °F 69% 30.46 in 1.2 mi NNE 15.0 mph - 0.00 in Snow Light Snow
2:52 PM 1.0 °F -14.9 °F -6.0 °F 72% 30.53 in 1.0 mi NNE 10.4 mph - 0.00 in Snow Light Snow
3:10 PM 1.0 °F -16.6 °F -6.0 °F 72% 30.47 in 2.0 mi North 12.7 mph - 0.01 in Snow Light Snow
3:21 PM 1.0 °F -18.7 °F -7.1 °F 69% 30.47 in 1.5 mi North 16.1 mph - 0.01 in Snow Light Snow
3:45 PM 1.0 °F -18.0 °F -6.0 °F 72% 30.48 in 0.8 mi North 15.0 mph - 0.01 in Snow Light Snow
3:52 PM 1.0 °F -18.0 °F -5.1 °F 75% 30.56 in 0.8 mi North 15.0 mph - 0.02 in Snow Light Snow
4:08 PM 1.0 °F -18.0 °F -6.0 °F 72% 30.47 in 2.0 mi North 15.0 mph - 0.00 in Snow Light Snow
4:12 PM 1.0 °F -18.7 °F -6.0 °F 72% 30.47 in 4.0 mi North 16.1 mph - 0.00 in Snow Light Snow
4:52 PM 1.9 °F -15.5 °F -8.0 °F 63% 30.56 in 10.0 mi North 12.7 mph - 0.00 in   Overcast
5:20 PM 1.0 °F -19.3 °F -7.1 °F 69% 30.49 in 1.8 mi North 17.3 mph - 0.00 in Snow Light Snow
5:32 PM 1.0 °F -17.3 °F -6.0 °F 72% 30.48 in 1.2 mi North 13.8 mph - 0.00 in Snow Light Snow
5:48 PM 1.4 °F -16.9 °F -5.8 °F 72% 30.48 in 2.5 mi North 13.8 mph - 0.00 in Snow Light Snow
5:52 PM 1.0 °F -16.6 °F -6.0 °F 72% 30.57 in 4.0 mi NNE 12.7 mph - 0.00 in Snow Light Snow
6:00 PM 1.0 °F -16.6 °F -6.0 °F 72% 30.48 in 7.0 mi North 12.7 mph - 0.00 in Snow Light Snow
6:52 PM 1.0 °F -16.6 °F -7.1 °F 69% 30.58 in 10.0 mi NNE 12.7 mph - 0.00 in   Overcast
7:52 PM 1.0 °F -16.6 °F -8.0 °F 66% 30.58 in 10.0 mi NNE 12.7 mph - N/A   Overcast
8:52 PM 1.0 °F -18.0 °F -8.0 °F 66% 30.62 in 10.0 mi North 15.0 mph - N/A   Overcast
9:52 PM -0.0 °F -19.4 °F -9.9 °F 63% 30.63 in 10.0 mi North 15.0 mph - N/A   Overcast
10:52 PM -0.0 °F -20.1 °F -9.0 °F 66% 30.64 in 10.0 mi North 16.1 mph - N/A   Overcast
11:40 PM -0.9 °F -21.9 °F -8.0 °F 72% 30.55 in 9.0 mi NNW 17.3 mph - N/A   Overcast
11:52 PM -0.9 °F -20.6 °F -8.0 °F 72% 30.65 in 10.0 mi NNW 15.0 mph - N/A   Overcast